This demonstration page uses our WeatherBlox Daily Observations layout. Learn more.

Hourly Observations for July 7, 2019

Temp ( °F °C ) Dew Point ( °F °C ) Humidity (%) Winds ( mph kmh ) Pressure ( in mb ) Visibility ( mi km ) Precip ( " mm )
12:15 am 00:15 Clear 68 19.9 67 19.5 98 98 SE 5 7 30.06 1018 10 16.09344 0 0
12:35 am 00:35 Clear 67 19.6 67 19.4 99 99 SE 6 9 30.06 1018 10 16.09344 0 0
12:55 am 00:55 Clear 67 19.5 67 19.2 98 98 SE 6 9 30.06 1018 10 16.09344 0 0
1:15 am 01:15 Clear 67 19.2 66 19.1 99 99 ESE 6 9 30.06 1018 10 16.09344 0 0
1:35 am 01:35 Clear 65 18.6 65 18.5 99 99 ESE 3 6 30.06 1018 10 16.09344 0 0
1:55 am 01:55 Clear 66 19 66 19 100 100 Calm 30.06 1018 10 16.09344 0 0
2:15 am 02:15 Clear 65 18.6 65 18.6 100 100 Calm 30.06 1018 10 16.09344 0 0
2:35 am 02:35 Clear 65 18.6 65 18.6 100 100 SSE 3 6 30.06 1018 10 16.09344 0 0
2:55 am 02:55 Clear 65 18.6 65 18.6 100 100 SE 3 6 30.06 1018 10 16.09344 0 0
3:15 am 03:15 Clear 65 18.5 65 18.5 100 100 Calm 30.06 1018 7 11.265408 0 0
3:35 am 03:35 Clear 65 18.5 65 18.5 100 100 SSE 5 7 30.06 1018 7 11.265408 0 0
3:55 am 03:55 Clear 65 18.2 65 18.2 100 100 Calm 30.06 1018 7 11.265408 0 0
4:15 am 04:15 Clear 64 18 64 18 100 100 Calm 30.06 1018 7 11.265408 0 0
4:35 am 04:35 Mostly Cloudy with Mist and Fog 64 17.9 64 17.9 100 100 W 3 6 30.06 1018 5 8.04672 0 0
4:55 am 04:55 Partly Cloudy 65 18.5 65 18.5 100 100 WNW 12 19 30.09 1019 7 11.265408 0 0
5:15 am 05:15 Mostly Cloudy 67 19.3 67 19.3 100 100 WNW 9 15 30.09 1019 10 16.09344 0 0
5:35 am 05:35 Mostly Cloudy 67 19.6 67 19.5 99 99 W 5 7 30.09 1019 10 16.09344 0 0
5:55 am 05:55 Partly Cloudy 67 19.5 64 18 91 91 NNW 5 7 30.06 1018 10 16.09344 0 0
6:15 am 06:15 Sunny 66 18.7 64 17.5 93 93 E 6 9 30.06 1018 10 16.09344 0 0
6:35 am 06:35 Sunny 65 18.6 64 17.5 93 93 Calm 30.06 1018 10 16.09344 0 0
6:55 am 06:55 Sunny 65 18.4 64 17.6 95 95 Calm 30.06 1018 10 16.09344 0 0
7:15 am 07:15 Sunny 65 18.4 64 18 98 98 Calm 30.06 1018 10 16.09344 0 0
7:35 am 07:35 Sunny 66 19.1 65 18.3 95 95 Calm 30.06 1018 10 16.09344 0 0
7:55 am 07:55 Sunny 68 20 66 19.1 95 95 SE 3 6 30.06 1018 10 16.09344 0 0
8:15 am 08:15 Sunny 69 20.3 67 19.5 95 95 SE 6 9 30.06 1018 10 16.09344 0 0
8:35 am 08:35 Sunny 70 21 68 20.1 95 95 SE 6 9 30.03 1017 10 16.09344 0 0
8:55 am 08:55 Sunny 71 21.5 68 20 91 91 SE 3 6 30.03 1017 10 16.09344 0 0
9:15 am 09:15 Sunny 72 22.2 69 20.3 89 89 SE 5 7 30.03 1017 10 16.09344 0 0
9:35 am 09:35 Sunny 73 23 69 20.4 85 85 SSE 6 9 30.03 1017 10 16.09344 0 0
9:55 am 09:55 Sunny 74 23.2 68 19.9 82 82 S 5 7 30.03 1017 10 16.09344 0 0
10:15 am 10:15 Sunny 74 23.6 68 20.1 81 81 S 6 9 30.03 1017 10 16.09344 0 0
10:35 am 10:35 Sunny 75 24.1 68 20.1 78 78 SSE 6 9 30.03 1017 10 16.09344 0 0
10:55 am 10:55 Partly Cloudy 76 24.4 68 20.1 77 77 SSE 7 11 30 1016 10 16.09344 0 0
11:15 am 11:15 Partly Cloudy 77 25.1 68 20.1 74 74 S 8 13 30 1016 10 16.09344 0 0
11:35 am 11:35 Partly Cloudy 77 25.1 67 19.7 72 72 SSE 10 17 30 1016 10 16.09344 0 0
11:55 am 11:55 Partly Cloudy 77 25.2 68 20 73 73 S 7 11 30 1016 10 16.09344 0 0
12:15 pm 12:15 Partly Cloudy 78 25.7 67 19.5 69 69 S 8 13 30 1016 10 16.09344 0 0
12:35 pm 12:35 Sunny 79 26 68 19.8 69 69 SSE 7 11 30 1016 10 16.09344 0 0
12:55 pm 12:55 Sunny 79 26.3 68 20.1 69 69 SSE 9 15 29.97 1015 10 16.09344 0 0
1:15 pm 13:15 Sunny 80 26.5 67 19.5 65 65 SSE 8 13 29.97 1015 10 16.09344 0 0
1:35 pm 13:35 Partly Cloudy 80 26.9 67 19.6 64 64 SSE 10 17 29.97 1015 10 16.09344 0 0
1:55 pm 13:55 Partly Cloudy 81 27.1 68 19.8 64 64 SSE 10 17 29.97 1015 10 16.09344 0 0
2:15 pm 14:15 Sunny 81 27.2 68 19.9 64 64 SE 10 17 29.97 1015 10 16.09344 0 0
2:35 pm 14:35 Sunny 81 27.3 67 19.4 62 62 S 9 15 29.97 1015 10 16.09344 0 0
2:55 pm 14:55 Sunny 81 27.3 68 20.2 65 65 SSE 12 19 29.94 1014 10 16.09344 0 0
3:15 pm 15:15 Sunny 81 27.2 67 19.3 62 62 SSE 10 17 29.94 1014 10 16.09344 0 0
3:35 pm 15:35 Sunny 82 27.5 67 19.3 61 61 SSE 12 19 29.91 1013 10 16.09344 0 0
3:55 pm 15:55 Sunny 82 27.7 67 19.2 60 60 SSE 12 19 29.91 1013 10 16.09344 0 0
4:15 pm 16:15 Sunny 82 27.8 67 19.3 60 60 SSE 10 17 29.91 1013 10 16.09344 0 0
4:35 pm 16:35 Sunny 82 27.6 67 19.7 62 62 SSE 10 17 29.91 1013 10 16.09344 0 0
4:55 pm 16:55 Sunny 82 27.9 67 19.3 60 60 SSE 12 19 29.91 1013 10 16.09344 0 0
5:15 pm 17:15 Sunny 82 27.9 68 20 62 62 SSE 10 17 29.88 1012 10 16.09344 0 0
5:35 pm 17:35 Sunny 81 27.2 67 19.4 62 62 SE 12 19 29.88 1012 10 16.09344 0 0
5:55 pm 17:55 Sunny 81 27.1 67 19.4 63 63 SSE 9 15 29.88 1012 10 16.09344 0 0
6:15 pm 18:15 Sunny 81 27 67 19.7 64 64 SE 8 13 29.91 1013 10 16.09344 0 0
6:35 pm 18:35 Sunny 81 27 67 19.4 63 63 SE 12 19 29.85 1011 10 16.09344 0 0
6:55 pm 18:55 Sunny 80 26.4 67 19.3 65 65 SE 8 13 29.88 1012 10 16.09344 0 0
7:15 pm 19:15 Sunny 79 26.3 68 20.1 69 69 SE 7 11 29.88 1012 10 16.09344 0 0
7:35 pm 19:35 Sunny 81 27 69 20.4 67 67 SE 9 15 29.85 1011 10 16.09344 0 0
7:55 pm 19:55 Sunny 80 26.5 68 20.1 68 68 SE 8 13 29.88 1012 10 16.09344 0 0
8:15 pm 20:15 Sunny 79 26.3 69 20.6 71 71 SE 7 11 29.88 1012 10 16.09344 0 0
8:35 pm 20:35 Sunny 78 25.6 69 20.3 73 73 SE 7 11 29.88 1012 10 16.09344 0 0
8:55 pm 20:55 Sunny 76 24.5 70 20.9 80 80 ESE 8 13 29.88 1012 10 16.09344 0 0
9:15 pm 21:15 Clear 75 23.7 70 21.2 86 86 ESE 8 13 29.88 1012 10 16.09344 0 0
9:35 pm 21:35 Clear 73 23 70 21 89 89 ESE 8 13 29.91 1013 10 16.09344 0 0
9:55 pm 21:55 Clear 73 22.7 70 21 90 90 ESE 8 13 29.91 1013 10 16.09344 0 0
10:15 pm 22:15 Clear 72 22.2 69 20.7 91 91 ESE 7 11 29.94 1014 10 16.09344 0 0
10:35 pm 22:35 Clear 72 22.1 69 20.7 92 92 SE 8 13 29.94 1014 10 16.09344 0 0
10:55 pm 22:55 Clear 72 22 69 20.5 91 91 SE 7 11 29.94 1014 10 16.09344 0 0
11:15 pm 23:15 Clear 71 21.7 69 20.3 92 92 SE 7 11 29.94 1014 10 16.09344 0 0
11:35 pm 23:35 Clear 70 21.3 68 20.2 93 93 SE 6 9 29.94 1014 10 16.09344 0 0
11:55 pm 23:55 Clear 70 21 68 20 94 94 SE 6 9 29.94 1014 10 16.09344 0 0

Powered by AerisWeather